Frederick, OK

2:21 PM CDT on April 29, 2017 (GMT -0500)
Frederick Municipal

Weather History for KFDR - February, 2012

Change the Weather History Date:

Sunday, February 26, 2012

  Actual Average (KLTS) Record (KLTS)
Temperature  
Mean Temperature 50 °F -  
Max Temperature 66 °F 55 °F 65 °F (2016)
Min Temperature 35 °F 31 °F 18 °F (2014)
Degree Days  
Heating Degree Days 14    
Moisture  
Dew Point 35 °F    
Average Humidity 56    
Maximum Humidity 83    
Minimum Humidity 39    
Precipitation  
Precipitation 0.00 in - - ()
Sea Level Pressure  
Sea Level Pressure 29.97 in    
Wind  
Wind Speed 12 mph (SSE)    
Max Wind Speed 16 mph    
Max Gust Speed 22 mph    
Visibility 10 miles    
Events      
Averages and records for this station are not official NWS values.
T = Trace of Precipitation, MM = Missing Value Source: NWS Daily Summary

Daily Weather History Graph

Daily Weather History Graph

Search for Another Location

Airport or City:

Trip Planner

Search our weather history database for the weather conditions in past years. The results will help you decide how hot, cold, wet, or windy it might be!

Date:

Astronomy

Feb. 26, 2012 Rise Set
Actual Time 7:09 AM CST 6:29 PM CST
Civil Twilight 6:43 AM CST 6:54 PM CST
Nautical Twilight 6:14 AM CST 7:23 PM CST
Astronomical Twilight 5:45 AM CST 7:52 PM CST
Moon 9:19 AM CST (2/26) 11:11 PM CST (2/26)
Length of Visible Light 12h 10m
Length of Day
11h 19m
Waxing Crescent, 21% of the Moon is Illuminated
Feb 26
Waxing Crescent
Feb 29
First Quarter
Mar 8
Full
Mar 14
Last Quarter
Mar 22
New

Hourly Weather History & Observations

Time (CST) Temp. Windchill Dew Point Humidity Pressure Visibility Wind Dir Wind Speed Gust Speed Precip Events Conditions
12:53 AM 44.1 °F 37.4 °F 23.0 °F 43% 29.98 in 10.0 mi South 13.8 mph - N/A   Clear
1:53 AM 43.0 °F 36.4 °F 23.0 °F 45% 29.98 in 10.0 mi South 12.7 mph - N/A   Clear
2:53 AM 41.0 °F 33.9 °F 24.1 °F 51% 29.98 in 10.0 mi South 12.7 mph - N/A   Clear
3:53 AM 39.9 °F 33.4 °F 24.1 °F 53% 29.97 in 10.0 mi SSE 10.4 mph - N/A   Clear
4:53 AM 36.0 °F 29.0 °F 24.1 °F 62% 29.98 in 10.0 mi SSE 9.2 mph - N/A   Clear
5:53 AM 35.1 °F 27.4 °F 24.1 °F 64% 29.97 in 10.0 mi SSE 10.4 mph - N/A   Clear
7:53 AM 37.0 °F 29.8 °F 26.1 °F 65% 29.98 in 10.0 mi SSE 10.4 mph - N/A   Clear
8:53 AM 44.1 °F 37.4 °F 28.9 °F 55% 29.99 in 10.0 mi South 13.8 mph - N/A   Clear
9:53 AM 48.9 °F - 32.0 °F 52% 29.99 in 10.0 mi SSW 15.0 mph - N/A   Clear
10:53 AM 55.0 °F - 35.1 °F 47% 29.98 in 10.0 mi SSW 16.1 mph - N/A   Clear
11:53 AM 57.9 °F - 36.0 °F 44% 29.97 in 10.0 mi SSW 15.0 mph 21.9 mph N/A   Clear
12:53 PM 62.1 °F - 37.9 °F 41% 29.94 in 10.0 mi South 12.7 mph 17.3 mph N/A   Clear
1:53 PM 64.0 °F - 39.9 °F 41% 29.91 in 10.0 mi SSW 11.5 mph - N/A   Clear
2:53 PM 66.9 °F - 41.0 °F 39% 29.90 in 10.0 mi South 10.4 mph - N/A   Clear
3:53 PM 66.0 °F - 43.0 °F 43% 29.90 in 10.0 mi SSE 12.7 mph - N/A   Clear
4:53 PM 66.0 °F - 43.0 °F 43% 29.90 in 10.0 mi SE 12.7 mph - N/A   Clear
5:53 PM 63.0 °F - 44.1 °F 50% 29.91 in 10.0 mi SE 9.2 mph - N/A   Clear
6:53 PM 55.0 °F - 43.0 °F 64% 29.94 in 10.0 mi East 9.2 mph - N/A   Clear
7:53 PM 53.1 °F - 42.1 °F 66% 29.98 in 10.0 mi ENE 10.4 mph - N/A   Clear
8:53 PM 50.0 °F - 42.1 °F 74% 30.01 in 10.0 mi NE 11.5 mph - N/A   Clear
9:53 PM 50.0 °F - 42.1 °F 74% 30.04 in 10.0 mi NE 12.7 mph - N/A   Clear
10:53 PM 48.9 °F - 43.0 °F 80% 30.07 in 10.0 mi NE 11.5 mph - N/A   Clear
11:53 PM 48.0 °F - 43.0 °F 83% 30.10 in 10.0 mi NE 11.5 mph - N/A   Clear